Weather History for Branson, MO

Change the Weather History Date:

Friday, June 14, 2013

  Actual Average (KHRO) Record (KHRO)
Temperature  
Mean Temperature 76 °F 73 °F  
Max Temperature 89 °F 84 °F 102 °F (1953)
Min Temperature 64 °F 63 °F 45 °F (1947)
Degree Days  
Heating Degree Days 0 0  
Month to date heating degree days 3  
Since 1 June heating degree days 3  
Since 1 July heating degree days 4001  
Cooling Degree Days 12 9  
Month to date cooling degree days 99  
Year to date cooling degree days 238  
Since 1 June cooling degree days 99  
Growing Degree Days 26 (Base 50)    
Moisture  
Dew Point 65 °F    
Average Humidity 79    
Maximum Humidity 100    
Minimum Humidity 49    
Precipitation  
Precipitation 0.00 in 0.14 in 3.04 in (1955)
Month to date precipitation 2.03  
Year to date precipitation 20.03  
Snow  
Snow 0.00 in 0.00 in - ()
Month to date snowfall 0.0  
Since 1 June snowfall 0.0  
Since 1 July snowfall 11.5  
Snow Depth -    
Sea Level Pressure  
Sea Level Pressure 30.04 in    
Wind  
Wind Speed 4 mph (SE)    
Max Wind Speed 12 mph    
Max Gust Speed -    
Visibility 10 miles    
Events      
T = Trace of Precipitation, MM = Missing Value Source: NWS Daily Summary

Daily Weather History Graph

Daily Weather History Graph

Search for Another Location

Airport:

Trip Planner

Search our weather history database for the weather conditions in past years. The results will help you decide how hot, cold, wet, or windy it might be!

Date:

Astronomy

Jun. 14, 2013 Rise Set
Actual Time 5:53 AM CDT 8:32 PM CDT
Civil Twilight 5:23 AM CDT 9:02 PM CDT
Nautical Twilight 4:45 AM CDT 9:40 PM CDT
Astronomical Twilight 4:03 AM CDT 10:23 PM CDT
Moon 11:21 AM CDT (6/14) No Moon Set
Length of Visible Light 15h 39m
Length of Day
14h 38m
Waxing Crescent, 30% of the Moon is Illuminated
Jun 14
Waxing Crescent
Jun 16
First Quarter
Jun 23
Full
Jun 29
Last Quarter
Jul 8
New

Hourly Weather History & Observations

Time (CDT) Temp. Heat Index Dew Point Humidity Pressure Visibility Wind Dir Wind Speed Gust Speed Precip Events Conditions
12:15 AM 71.6 °F - 64.4 °F 78% 30.02 in 10.0 mi SE 5.8 mph - N/A   Clear
12:35 AM 69.8 °F - 64.4 °F 83% 30.02 in 10.0 mi SE 5.8 mph - N/A   Clear
12:55 AM 68.0 °F - 64.4 °F 88% 30.02 in 10.0 mi SSE 3.5 mph - N/A   Clear
1:15 AM 68.0 °F - 64.4 °F 88% 30.03 in 10.0 mi SSE 3.5 mph - N/A   Clear
1:35 AM 69.8 °F - 64.4 °F 83% 30.03 in 10.0 mi SSE 3.5 mph - N/A   Clear
1:55 AM 68.0 °F - 64.4 °F 88% 30.05 in 10.0 mi Calm Calm - N/A   Clear
2:15 AM 66.2 °F - 64.4 °F 94% 30.05 in 10.0 mi Calm Calm - N/A   Clear
2:35 AM 66.2 °F - 64.4 °F 94% 30.04 in 10.0 mi Calm Calm - N/A   Clear
2:55 AM 66.2 °F - 64.4 °F 94% 30.04 in 10.0 mi Calm Calm - N/A   Clear
3:15 AM 66.2 °F - 62.6 °F 88% 30.04 in 10.0 mi Calm Calm - N/A   Clear
3:35 AM 66.2 °F - 64.4 °F 94% 30.04 in 10.0 mi Calm Calm - N/A   Clear
3:55 AM 66.2 °F - 64.4 °F 94% 30.04 in 10.0 mi East 3.5 mph - N/A   Clear
4:15 AM 66.2 °F - 64.4 °F 94% 30.04 in 10.0 mi ENE 5.8 mph - N/A   Clear
4:35 AM 66.2 °F - 64.4 °F 94% 30.04 in 10.0 mi Calm Calm - N/A   Clear
4:55 AM 66.2 °F - 62.6 °F 88% 30.05 in 10.0 mi SSE 3.5 mph - N/A   Clear
5:15 AM 64.4 °F - 64.4 °F 100% 30.05 in 10.0 mi ESE 3.5 mph - N/A   Clear
5:35 AM 66.2 °F - 64.4 °F 94% 30.05 in 10.0 mi ESE 4.6 mph - N/A   Clear
5:55 AM 64.4 °F - 64.4 °F 100% 30.06 in 10.0 mi Calm Calm - N/A   Clear
6:15 AM 64.4 °F - 64.4 °F 100% 30.07 in 9.0 mi Calm Calm - N/A   Clear
6:35 AM 64.4 °F - 64.4 °F 100% 30.06 in 8.0 mi SE 3.5 mph - N/A   Clear
6:50 AM 66.2 °F - 66.2 °F 100% 30.06 in 9.0 mi ESE 6.9 mph - N/A   Scattered Clouds
7:45 AM 69.8 °F - 64.4 °F 83% 30.07 in 10.0 mi SE 8.1 mph - N/A   Mostly Cloudy
8:45 AM 73.4 °F - 64.4 °F 73% 30.09 in 10.0 mi SE 6.9 mph - N/A   Mostly Cloudy
9:45 AM 77.0 °F - 62.6 °F 61% 30.09 in 10.0 mi ESE 10.4 mph - N/A   Mostly Cloudy
10:45 AM 78.8 °F - 62.6 °F 57% 30.09 in 10.0 mi ESE 9.2 mph - N/A   Mostly Cloudy
11:48 AM 82.4 °F 83.9 °F 64.4 °F 54% 30.07 in 10.0 mi SSE 9.2 mph - N/A   Partly Cloudy
12:52 PM 84.2 °F 86.6 °F 66.2 °F 55% 30.06 in 10.0 mi SSE 8.1 mph - N/A   Partly Cloudy
1:50 PM 84.2 °F 87.3 °F 68.0 °F 58% 30.06 in 10.0 mi South 4.6 mph - N/A   Scattered Clouds
2:45 PM 86.0 °F 89.4 °F 68.0 °F 55% 30.03 in 10.0 mi ESE 8.1 mph - N/A   Partly Cloudy
4:48 PM 89.6 °F 93.4 °F 68.0 °F 49% 30.00 in 10.0 mi ESE 9.2 mph - N/A   Partly Cloudy
5:46 PM 87.8 °F 90.4 °F 66.2 °F 49% 30.00 in 10.0 mi ESE 10.4 mph - N/A   Partly Cloudy
6:51 PM 84.2 °F 86.6 °F 66.2 °F 55% 29.99 in 10.0 mi East 10.4 mph - N/A   Partly Cloudy
7:48 PM 82.4 °F 83.9 °F 64.4 °F 54% 30.00 in 10.0 mi SE 11.5 mph - N/A   Scattered Clouds
8:47 PM 78.8 °F - 64.4 °F 61% 30.00 in 10.0 mi ESE 8.1 mph - N/A   Scattered Clouds